Location: Brivio
(45.7333°N, 9.4500°E)
Time: 19:07:32
(UTC+00:00)

N. Korean satellite - Pass Details

Date: 18 December 2019
Orbit: 454 x 507 km, 97.2° (Epoch: 28 January)

Event Time Altitude Azimuth Distance (km) Brightness Sun altitude
Rises 06:16:58 0° 357° (N) 2,522 9.9 -7.0°
Reaches altitude 10° 06:19:30 10° 337° (NNW) 1,629 8.8 -6.6°
Maximum altitude 06:21:54 18° 294° (WNW) 1,219 8.0 -6.3°
Drops below altitude 10° 06:24:16 10° 250° (WSW) 1,605 8.8 -5.9°
Sets 06:26:45 0° 231° (SW) 2,468 9.9 -5.5°
